{"data":{"norad_id":63213,"intl_designator":"2025-052D","name":"TEVEL2-4","alt_names":[],"object_type":"PAYLOAD","status":"ACTIVE","operator":null,"country":"ISRA","launch_date":"2025-03-15","launch_site_code":"AFWTR","launch_vehicle":null,"mission":null,"orbit_class":"UNKNOWN","rcs_meters":null,"size_class":null,"mass_kg":null,"dimensions":null,"purposes":["comms"],"wikipedia_slug":null,"has_3d_model":false,"image_url":null,"decayed_at":null,"tle_current":{"epoch":"2026-09-19T23:01:03.804384Z","epoch_age_seconds":61281,"freshness":"FRESH","line1":"1 63213U 25052D   26262.95907181  .00014116  00000+0  38323-3 0  9991","line2":"2 63213  97.3757 159.6486 0004446 109.3415 250.8311 15.37696233 84664","mean_motion":15.37696233,"eccentricity":0.0004446,"inclination_deg":97.3757,"raan_deg":159.6486,"arg_perigee_deg":109.3415,"mean_anomaly_deg":250.8311,"bstar":0.00038323,"rev_number":8466,"period_min":93.646584357601,"perigee_km":449.88655671951,"apogee_km":455.96073584618,"semimajor_km":6831.0606462828,"source":"CELESTRAK","updated_at":"2026-09-20T09:00:45.242662Z"}}}